Location: Baia Mare
(47.6567°N, 23.5850°E)
Time: 11:04:21
(UTC+03:00)

ISS - Pass Details

Date: 02 August 2018
Orbit: 402 x 408 km, 51.6° (Epoch: 19 July)

Event Time Altitude Azimuth Distance (km) Brightness Sun altitude
Rises 21:31:03 0° 291° (WNW) 2,322 2.0 -5.5°
Reaches altitude 10° 21:33:10 10° 296° (WNW) 1,462 0.8 -5.7°
Maximum altitude 21:36:23 51° 14° (NNE) 515 -3.1 -6.2°
Drops below altitude 10° 21:39:35 10° 92° (E) 1,461 -1.5 -6.6°
Enters shadow 21:40:23 - 95° (E) 1,776 -1.1 -6.7°
